Weather in Chistik

Russia / Smolensk Oblast     54°56′58″N   31°11′48″E
temp.,
°C
wind,
m/s
gust,
m/s
humid.,
%
clouds,
%
prec.,
mm/h
press.,
hPa
HPBL,
m
13 april, tue
tue1300:00+9e2390100 0.8 102272
03:00+9sse1196100 1.3 102121
06:00+8ese1193100 0.0 102110
09:00+11se128390 0.0 1021209
12:00+14se3472100 0.0 1020593
15:00+16s61066100 0.6 10191210
18:00+12sse41184100 0.3 1018586
21:00+10sse3891100 0.8 1018257
14 april, wed
wed1400:00+10sse3694100 0.2 1018200
03:00+9s2395100 0.2 101774
06:00+9s239584 0.0 101674
09:00+9se2395100 0.3 1017135
12:00+13s457295 0.1 1016896
15:00+14s3366100 0.3 1016759
18:00+13sse3470100 0.7 1016621
21:00+10ese338894 1.4 101732
15 april, thu
thu1500:00+9nne3596100 1.0 1017145
03:00+8nne4796100 1.2 1017269
06:00+8nne4897100 0.3 1016285
09:00+8nne4896100 0.6 1016298
12:00+9nne6890100 0.4 1016388
15:00+11nne6884100 0.9 1015698
18:00+9ne4695100 2.4 1015363
21:00+9ne3794100 3.3 1016356
16 april, fri
fri1600:00+8ene41095100 0.3 1015446
03:00+8ne51192100 0.6 1016470
06:00+7ene61294100 0.0 1016453
09:00+8ne6128985 0.1 1017493
12:00+10ene7979100 0.0 1017781
15:00+11ene61080100 0.5 1017910
18:00+11ne61279100 0.1 1017866
21:00+10ne71389100 3.7 1018653
17 april, sat
sat1700:00+9ene71394100 1.2 1018503
03:00+8ene5119386 1.6 1019530
06:00+8ene5995100 0.0 1020444
09:00+8ene5991100 0.1 1022658
12:00+10ene5683100 0.1 1022735
15:00+11ene4982100 0.1 1023945
18:00+13ene6117293 0.0 1022814
21:00+11ene614765 0.0 1023518